Weather in Musorka

Russia / Samara Oblast     53°45′22″N   49°43′51″E
temp.,
°C
wind,
m/s
gust,
m/s
humid.,
%
clouds,
%
prec.,
mm/h
press.,
hPa
HPBL,
m
30 june, thu
thu3001:00+10nnw22840 0.0 101515
04:00+9wnw33894 0.0 101526
07:00+13nw36815 0.0 1013222
10:00+17wnw4662100 0.0 1012701
13:00+20wnw575367 0.0 10111790
16:00+20nw585192 0.0 10102157
19:00+17wnw376989 0.1 1009243
22:00+12nnw33797 0.3 100936
1 july, fri
fri101:00+9nne3794100 0.0 1009149
04:00+10nne3698100 0.8 1009293
07:00+9nne5897100 5.8 1009389
10:00+10ne5791100 6.1 1010644
13:00+12nne6788100 0.3 1010680
16:00+13nne6990100 0.7 1009490
19:00+15ene61185100 1.5 1009430
22:00+12ne51095100 2.4 1010247
2 july, sat
sat201:00+11ne51293100 0.0 1011224
04:00+10ne410957 0.0 1011195
07:00+13ne610905 0.0 1011276
10:00+17ene610747 0.0 1011775
13:00+20ene796063 0.6 10111506
16:00+20ene687042 1.9 10111319
19:00+17ne598378 1.0 1010475
22:00+14nne5129339 1.7 1010268
3 july, sun
sun301:00+13nne5119468 0.0 1010231
04:00+12nne5119530 0.0 1010196
07:00+14nne511895 0.0 1010309
10:00+19nne68695 0.0 1010770
13:00+22nne675923 0.1 10101741
16:00+21nne575991 0.2 10101188
19:00+19n597282 0.3 1010325
22:00+15n4985100 0.3 1011187
4 july, mon
mon401:00+14n498981 0.0 1011222
04:00+12n410960 0.0 1012226
07:00+13nnw388681 0.0 1012312
10:00+18nne686710 0.0 10131108
13:00+19ne796578 0.1 10141190
16:00+20nne685812 0.1 10141593
19:00+18ne59728 0.3 1015509
22:00+14ne35865 0.3 101784